Portada
METAR-TAF:

METAR-TAF

Aeroports :

Searcy Municipal Airport

Searcy, Arkansas, Estats Units d'Amèrica

latitud: 35-12-43N, longitud: 091-44-14W, altitud: 81 m

Observació

L'informe es va fer fa 25 minuts, a les 12:56 UTC
Vent calma
Temperatura 26°C
Humitat 89%
Pressió 1019 hPa
Visibilitat: 16.1 km
Cel ennuvolat a una alçada de 7000 ft

METAR: KSRC 221256Z AUTO 00000KT 10SM BKN070 26/24 A3010 RMK AO2 SLP191 T02560239 $

Hora: 08:21 (13:21 UTC)


TAF: manca

Observacions i pronòstics meteorològics de més de 4000 aeroports (METAR i TAF).

Les estacions disponibles són els punts grocs i vermells al mapa.

Posi el ratolí al punt desitjat per veure el nom de l'estació.

Feu clic per veure les observacions i els pronòstics meteorològics.

Per canviar el mapa: feu clic els botons verds amb una creu de color negre per apropar; al botó verd amb un guió per allunyar la imatge; o en les fletxes verdes per a mapes adjacents.


METAR-TAF: